1501509600.48,35359,22.81,74874.3,13.17,9.57,9.95,0,*4E
1501509601.68,35360,22.81,74876.5,13.17,9.67,9.95,0,*47
1501509602.91,35361,22.81,74872.3,13.17,9.61,10.03,0,*77
1501509604.14,35362,22.81,74876.0,13.17,9.57,9.95,0,*46
1501509605.37,35363,22.75,74874.0,13.19,9.53,9.89,0,*40
1501509606.55,35364,22.81,74872.8,13.19,9.71,9.99,0,*46
1501509607.73,35365,22.75,74872.0,13.19,9.71,9.99,0,*47
1501509608.92,35366,22.81,74872.0,13.19,9.75,10.09,0,*71
1501509610.13,35367,22.81,74874.3,13.19,9.77,10.05,0,*7E
1501509611.31,35368,22.81,74876.0,13.19,9.71,9.99,0,*4A
1501509612.52,35369,22.81,74876.5,13.21,9.63,9.99,0,*43
1501509613.72,35370,22.81,74874.5,13.23,9.61,9.99,0,*4B
1501509614.97,35371,22.75,74874.0,13.21,9.53,9.89,0,*48
1501509616.23,35372,22.81,74872.0,13.21,9.53,9.85,0,*47
1501509617.45,35373,22.81,74874.5,13.23,9.47,9.81,0,*45
1501509618.66,35374,22.81,74876.3,13.23,9.47,9.77,0,*4B
1501509619.85,35375,22.81,74876.0,13.23,9.47,9.75,0,*48
1501509621.06,35376,22.81,74878.0,13.23,9.47,9.77,0,*49
1501509622.29,35377,22.81,74874.0,13.23,9.57,9.89,0,*48
1501509623.47,35378,22.81,74876.8,13.23,9.67,9.99,0,*45
1501509624.7,35379,22.81,74876.8,13.27,9.77,10.03,0,*7A
1501509625.91,35380,22.81,74872.0,13.25,9.63,9.89,0,*41
1501509627.11,35381,22.81,74876.0,13.27,9.67,9.95,0,*4B
1501509628.35,35382,22.81,74876.0,13.27,9.85,10.03,0,*73
1501509629.6,35383,22.81,74876.8,13.27,9.81,10.05,0,*70
1501509630.84,35384,22.81,74872.5,13.27,9.77,10.05,0,*7E
1501509632.08,35385,22.81,74872.0,13.27,9.85,10.13,0,*75
1501509633.3,35386,22.81,74876.3,13.29,9.89,10.09,0,*7F
1501509634.52,35387,22.81,74876.8,13.29,9.85,10.09,0,*72
1501509635.77,35388,22.81,74872.3,13.31,9.89,10.13,0,*73
1501509637.02,35389,22.81,74876.5,13.31,9.89,10.13,0,*72
1501509638.24,35390,22.81,74878.0,13.31,9.91,10.13,0,*73
1501509639.46,35391,22.81,74876.5,13.33,9.85,10.09,0,*7E
1501509640.65,35392,22.81,74876.0,13.33,9.91,10.09,0,*78
1501509641.86,35393,22.81,74872.8,13.35,9.95,10.13,0,*70
1501509643.08,35394,22.81,74876.0,13.35,10.03,10.13,0,*40
1501509644.32,35395,22.81,74878.5,13.35,9.89,10.03,0,*7A
1501509645.55,35396,22.81,74872.5,13.35,9.77,10.03,0,*78
1501509646.77,35397,22.81,74878.0,13.37,9.89,10.05,0,*7C
1501509647.96,35398,22.81,74878.0,13.37,9.91,10.13,0,*7D
1501509649.17,35399,22.81,74874.8,13.41,9.85,9.99,0,*42
1501509650.4,35400,22.81,74878.0,13.41,9.85,10.05,0,*78
1501509651.59,35401,22.81,74874.8,13.41,9.91,10.09,0,*70
1501509652.81,35402,22.81,74874.0,13.45,10.03,10.19,0,*45
1501509654.0,35403,22.81,74876.0,13.45,9.99,10.13,0,*75
1501509655.24,35404,22.81,74874.3,13.43,9.99,10.19,0,*7E
1501509656.46,35405,22.75,74872.8,13.45,10.03,10.19,0,*42
1501509657.68,35406,22.81,74872.8,13.47,10.03,10.05,0,*4E
1501509658.9,35407,22.81,74878.3,13.49,10.05,10.27,0,*47
1501509660.12,35408,22.81,74874.5,13.49,10.09,10.19,0,*49
1501509661.31,35409,22.81,74874.5,13.49,10.05,10.17,0,*4A
1501509662.54,35410,22.81,74876.8,13.49,10.05,10.19,0,*4C
1501509663.78,35411,22.81,74874.0,13.51,10.09,10.27,0,*45
1501509665.0,35412,22.81,74878.5,13.51,10.05,10.09,0,*46
1501509666.21,35413,22.81,74874.0,13.51,9.95,10.09,0,*76
1501509667.42,35414,22.81,74872.8,13.53,9.89,9.99,0,*4F
1501509668.61,35415,22.81,74872.0,13.53,9.99,10.09,0,*7E
1501509669.83,35416,22.81,74876.0,13.57,9.99,10.09,0,*79
1501509671.05,35417,22.81,74878.3,13.57,10.03,10.13,0,*48
1501509672.27,35418,22.81,74876.0,13.55,10.03,10.09,0,*4E
1501509673.5,35419,22.81,74872.8,13.57,10.13,10.17,0,*43
1501509674.73,35420,22.81,74874.0,13.59,10.17,10.19,0,*4D
1501509675.93,35421,22.81,74872.3,13.59,10.17,10.17,0,*42
1501509677.12,35422,22.81,74872.3,13.63,10.17,10.17,0,*48
1501509678.37,35423,22.81,74872.5,13.63,10.23,10.23,0,*49
1501509679.6,35424,22.75,74870.5,13.67,10.33,10.27,0,*4F
1501509680.86,35425,22.81,74870.5,13.65,10.33,10.31,0,*4B
1501509682.09,35426,22.81,74874.5,13.67,10.33,10.27,0,*4D
1501509683.32,35427,22.81,74872.0,13.67,10.33,10.27,0,*4C
1501509684.55,35428,22.81,74874.5,13.71,10.41,10.37,0,*40
1501509685.75,35429,22.81,74872.3,13.71,10.69,10.51,0,*4B
1501509686.96,35430,22.81,74876.5,13.71,10.61,10.47,0,*4C
1501509688.21,35431,22.81,74876.3,13.73,10.61,10.43,0,*4B
1501509689.43,35432,22.81,74872.0,13.75,10.65,10.47,0,*4E
1501509690.65,35433,22.81,74872.8,13.75,10.43,10.23,0,*49
1501509691.9,35434,22.81,74874.5,13.77,10.55,10.31,0,*48
1501509693.09,35435,22.81,74872.5,13.79,10.69,10.51,0,*4E
1501509694.31,35436,22.81,74872.0,13.79,10.71,10.51,0,*44
1501509695.56,35437,22.81,74872.8,13.85,10.71,10.43,0,*45
1501509696.8,35438,22.81,74874.0,13.85,10.75,10.43,0,*4E
1501509698.02,35439,22.81,74872.3,13.85,10.85,10.55,0,*47
1501509699.24,35440,22.81,74870.5,13.87,11.09,10.65,0,*4D
1501509700.48,35441,22.81,74868.8,13.93,11.13,10.71,0,*47
1501509701.74,35442,22.81,74872.3,13.91,10.99,10.61,0,*44
1501509702.97,35443,22.81,74874.5,13.93,11.03,10.55,0,*42
1501509704.21,35444,22.81,74872.3,13.95,10.95,10.43,0,*4A
1501509705.43,35445,22.81,74872.5,13.97,11.09,10.57,0,*48
1501509706.65,35446,22.81,74872.8,14.01,11.03,10.55,0,*4B
1501509707.86,35447,22.81,74874.3,14.01,11.09,10.55,0,*40
1501509709.1,35448,22.81,74874.8,14.03,11.03,10.47,0,*44
1501509710.3,35449,22.81,74872.0,14.05,11.21,10.55,0,*40
1501509711.5,35450,22.81,74868.5,14.05,11.21,10.55,0,*48
1501509712.72,35451,22.81,74874.5,14.11,11.21,10.55,0,*4C
1501509713.99,35452,22.81,74872.8,14.11,11.33,10.65,0,*4F
1501509715.26,35453,22.81,74868.0,14.15,11.37,10.61,0,*4A
1501509716.51,35454,22.81,74874.5,14.17,11.41,10.61,0,*4E
1501509717.75,35455,22.81,74870.3,14.19,11.45,10.69,0,*4D
1501509718.96,35456,22.81,74872.0,14.19,11.65,10.89,0,*42
1501509720.19,35457,22.81,74870.5,14.23,11.61,10.69,0,*40
1501509721.44,35458,22.81,74870.5,14.23,11.57,10.71,0,*43
1501509722.66,35459,22.81,74874.3,14.27,11.75,10.85,0,*4D
1501509723.88,35460,22.81,74874.3,14.27,11.81,10.95,0,*4D
1501509725.14,35461,22.81,74872.5,14.33,12.09,11.13,0,*45
1501509726.38,35462,22.81,74868.5,14.37,12.05,11.17,0,*4A
1501509727.63,35463,22.81,74872.8,14.41,12.17,11.13,0,*4D
1501509728.87,35464,22.81,74870.8,14.41,11.99,11.03,0,*4E
1501509730.11,35465,22.81,74872.8,14.45,12.17,11.17,0,*4B
1501509731.35,35466,22.81,74872.8,14.47,12.05,11.07,0,*48
1501509732.57,35467,22.81,74872.5,14.49,11.99,11.09,0,*4F
1501509733.81,35468,22.81,74868.5,14.55,12.13,11.09,0,*4C
1501509735.05,35469,22.81,74872.5,14.55,12.29,11.13,0,*4F
1501509736.3,35470,22.81,74870.5,14.59,12.29,11.21,0,*4A
1501509737.55,35471,22.81,74870.8,14.63,12.29,11.13,0,*43
1501509738.76,35472,22.81,74870.3,14.65,12.05,10.85,0,*46
1501509740.03,35473,22.81,74872.8,14.67,11.95,10.83,0,*49
1501509741.28,35474,22.81,74870.3,14.69,12.05,10.79,0,*4F
1501509742.52,35475,22.81,74874.8,14.71,12.17,10.89,0,*4B
1501509743.74,35476,22.81,74872.8,14.77,12.23,10.95,0,*44
1501509744.96,35477,22.81,74870.5,14.81,12.19,10.95,0,*45
1501509746.2,35478,22.81,74870.5,14.81,12.29,11.07,0,*43
1501509747.45,35479,22.81,74868.5,14.83,12.33,11.13,0,*4E
1501509748.64,35480,22.81,74870.5,14.85,12.39,11.09,0,*4F
1501509749.86,35481,22.81,74874.5,14.89,12.39,11.07,0,*4C
1501509751.09,35482,22.81,74870.0,14.91,12.43,11.13,0,*4E
1501509752.31,35483,22.81,74868.0,14.93,12.29,10.89,0,*43
1501509753.58,35484,22.81,74872.0,14.99,12.37,10.99,0,*40
1501509754.77,35485,22.81,74874.8,15.01,12.27,10.85,0,*4D
1501509756.02,35486,22.81,74868.8,15.03,12.17,10.69,0,*4D
1501509757.26,35487,22.81,74870.5,15.07,12.19,10.71,0,*4F
1501509758.54,35488,22.81,74870.3,15.07,12.09,10.61,0,*40
1501509759.78,35489,22.81,74870.3,15.09,12.17,10.71,0,*41
1501509761.03,35490,22.81,74872.0,15.11,12.19,10.79,0,*46
1501509762.25,35491,22.81,74870.8,15.15,11.99,10.47,0,*45
1501509763.47,35492,22.81,74870.5,15.15,11.99,10.47,0,*46
1501509764.72,35493,22.81,74870.5,15.21,12.23,10.71,0,*47
1501509765.97,35494,22.81,74872.5,15.21,12.23,10.83,0,*4D
1501509767.19,35495,22.81,74870.8,15.25,11.99,10.43,0,*46
1501509768.43,35496,22.81,74874.5,15.29,11.89,10.41,0,*4A
1501509769.67,35497,22.81,74872.3,15.29,12.23,10.83,0,*46
1501509770.92,35498,22.81,74874.5,15.31,12.57,11.07,0,*4E
1501509772.11,35499,22.81,74872.5,15.35,12.61,11.09,0,*40
1501509773.37,35500,22.81,74870.5,15.37,12.53,11.03,0,*48
1501509774.58,35501,22.81,74874.5,15.39,12.63,11.17,0,*41
1501509775.8,35502,22.81,74872.5,15.43,12.71,11.21,0,*49
1501509777.04,35503,22.81,74872.3,15.47,12.71,11.31,0,*4D
1501509778.28,35504,22.81,74872.5,15.51,12.67,11.17,0,*4E
1501509779.5,35505,22.81,74870.3,15.53,12.57,11.09,0,*41
1501509780.76,35506,22.81,74874.0,15.55,12.53,11.03,0,*4A
1501509782.0,35507,22.81,74874.5,15.59,12.53,11.17,0,*42
1501509783.21,35508,22.81,74868.8,15.61,12.47,11.03,0,*46
1501509784.45,35509,22.81,74870.5,15.63,12.27,10.75,0,*43
1501509785.72,35510,22.81,74874.5,15.63,11.95,10.37,0,*47
1501509786.94,35511,22.81,74870.0,15.69,11.57,10.03,0,*45
1501509788.18,35512,22.81,74870.3,15.71,11.81,10.41,0,*42
1501509789.39,35513,22.81,74868.8,15.73,11.95,10.43,0,*46
1501509790.61,35514,22.81,74870.5,15.75,11.99,10.55,0,*4C
1501509791.82,35515,22.81,74872.8,15.77,11.89,10.41,0,*4B
1501509793.06,35516,22.81,74868.0,15.77,11.79,10.27,0,*47
1501509794.31,35517,22.81,74870.3,15.79,11.75,10.17,0,*47
1501509795.56,35518,22.81,74872.0,15.81,11.57,10.17,0,*4F
1501509796.83,35519,22.81,74868.5,15.81,11.67,10.19,0,*43
1501509798.09,35520,22.81,74872.0,15.85,11.71,10.19,0,*4A
1501509799.29,35521,22.81,74870.8,15.91,11.93,10.55,0,*4A
1501509800.48,35522,22.81,74870.8,15.91,11.81,10.47,0,*49
1501509801.69,35523,22.81,74870.8,15.91,11.81,10.31,0,*49
1501509802.88,35524,22.81,74870.8,15.95,11.99,10.51,0,*45
1501509804.12,35525,22.81,74870.5,15.95,11.71,10.31,0,*44
1501509805.31,35526,22.81,74868.5,15.95,11.81,10.33,0,*4A
1501509806.51,35527,22.81,74872.8,15.99,11.99,10.47,0,*4D
1501509807.73,35528,22.81,74870.5,15.99,11.79,10.43,0,*48
1501509808.94,35529,22.81,74870.3,16.01,11.93,10.51,0,*4C
1501509810.18,35530,22.81,74870.3,16.05,11.95,10.55,0,*42
1501509811.39,35531,22.81,74868.5,16.07,11.79,10.43,0,*44
1501509812.67,35532,22.81,74870.8,16.13,11.67,10.41,0,*4F
1501509813.93,35533,22.81,74870.8,16.13,11.57,10.17,0,*4E
1501509815.22,35534,22.81,74870.5,16.13,11.61,10.31,0,*48
1501509816.47,35535,22.81,74870.3,16.17,11.75,10.43,0,*4D
1501509817.68,35536,22.81,74866.0,16.19,11.55,10.17,0,*43
1501509818.91,35537,22.81,74868.3,16.19,11.55,10.23,0,*45
1501509820.14,35538,22.81,74872.0,16.19,11.65,10.41,0,*4D
1501509821.41,35539,22.81,74872.0,16.21,11.67,10.41,0,*45
1501509822.66,35540,22.81,74870.5,16.23,11.61,10.41,0,*4F
1501509823.89,35541,22.81,74870.8,16.27,11.23,9.99,0,*71
1501509825.13,35542,22.81,74872.0,16.29,10.75,9.43,0,*79
1501509826.39,35543,22.81,74870.5,16.33,10.65,9.39,0,*7F
1501509827.62,35544,22.81,74870.8,16.31,10.41,9.15,0,*72
1501509828.85,35545,22.81,74870.3,16.29,10.13,8.83,0,*73
1501509830.06,35546,22.81,74870.0,16.29,10.03,8.69,0,*75
1501509831.33,35547,22.81,74868.5,16.29,9.89,8.55,0,*41
1501509832.54,35548,22.81,74870.3,16.23,9.89,8.65,0,*47
1501509833.8,35549,22.81,74870.3,16.29,10.27,8.93,0,*79
1501509835.03,35550,22.81,74870.3,16.27,10.17,8.89,0,*77
1501509836.27,35551,22.81,74868.3,16.29,9.57,8.45,0,*44
1501509837.47,35552,22.81,74868.5,16.27,9.95,8.71,0,*40
1501509838.69,35553,22.81,74868.0,16.27,9.89,8.65,0,*49
1501509839.92,35554,22.81,74868.3,16.23,9.53,8.41,0,*4B
1501509841.11,35555,22.81,74870.3,16.27,9.21,8.15,0,*4A
1501509842.32,35556,22.81,74868.0,16.23,9.07,7.87,0,*4D
1501509843.56,35557,22.81,74868.5,16.21,9.15,8.09,0,*44
1501509844.8,35558,22.81,74868.8,16.21,9.19,8.15,0,*4A
1501509846.06,35559,22.81,74870.5,16.21,8.71,7.69,0,*40
1501509847.28,35560,22.81,74868.3,16.19,8.79,7.87,0,*49
1501509848.49,35561,22.81,74868.0,16.17,8.61,7.55,0,*40
1501509849.73,35562,22.81,74870.5,16.15,8.55,7.61,0,*41
1501509850.98,35563,22.81,74868.8,16.15,8.55,7.73,0,*43
1501509852.21,35564,22.81,74868.3,16.13,8.29,7.41,0,*48
1501509853.39,35565,22.81,74870.3,16.11,8.05,7.29,0,*4B
1501509854.57,35566,22.81,74868.3,16.11,8.19,7.41,0,*4B
1501509855.79,35567,22.81,74870.5,16.07,8.37,7.65,0,*47
1501509857.03,35568,22.81,74866.8,16.05,8.79,8.13,0,*4E
1501509858.26,35569,22.81,74868.5,16.05,9.07,8.41,0,*40
1501509859.51,35570,22.81,74870.8,16.05,8.89,8.41,0,*4F
1501509860.74,35571,22.81,74866.8,16.07,9.01,8.47,0,*4B
1501509861.94,35572,22.81,74864.8,16.03,8.87,8.37,0,*44
1501509863.15,35573,22.81,74868.5,16.03,8.55,8.19,0,*46
1501509864.36,35574,22.81,74868.5,16.03,8.55,8.27,0,*4C
1501509865.58,35575,22.81,74866.0,16.01,8.09,7.83,0,*47
1501509866.8,35576,22.81,74868.8,16.01,7.87,7.51,0,*42
1501509868.0,35577,22.81,74866.8,15.99,7.83,7.59,0,*4D
1501509869.22,35578,22.81,74866.8,15.97,8.09,7.87,0,*42
1501509870.43,35579,22.81,74864.3,15.97,8.23,8.09,0,*42
1501509871.65,35580,22.81,74870.8,15.97,8.29,8.19,0,*4F
1501509872.82,35581,22.81,74868.0,15.95,8.69,8.69,0,*4F
1501509874.07,35582,22.81,74864.3,15.93,8.41,8.41,0,*4A
1501509875.3,35583,22.81,74870.3,15.93,8.41,8.45,0,*4F
1501509876.54,35584,22.81,74866.0,15.93,8.37,8.41,0,*4D
1501509877.79,35585,22.81,74870.5,15.93,8.37,8.41,0,*4C
1501509879.01,35586,22.81,74866.8,15.91,8.51,8.71,0,*4E
1501509880.26,35587,22.81,74866.3,15.89,8.47,8.71,0,*41
1501509881.49,35588,22.81,74866.3,15.89,8.41,8.61,0,*49
1501509882.72,35589,22.81,74864.5,15.89,8.37,8.69,0,*41
1501509883.94,35590,22.81,74868.3,15.89,8.37,8.69,0,*49
1501509885.2,35591,22.81,74864.8,15.89,8.13,8.47,0,*42
1501509886.4,35592,22.81,74870.0,15.89,7.79,8.23,0,*40
1501509887.62,35593,22.81,74868.0,15.85,7.51,7.91,0,*41
1501509888.83,35594,22.81,74870.0,15.83,7.73,8.27,0,*42
1501509890.08,35595,22.81,74870.5,15.81,7.77,8.29,0,*4B
1501509891.31,35596,22.81,74864.8,15.79,8.13,8.65,0,*4A
1501509892.54,35597,22.81,74866.5,15.81,7.97,8.55,0,*4C
1501509893.79,35598,22.81,74866.0,15.79,7.95,8.47,0,*45
1501509895.04,35599,22.81,74868.3,15.79,7.83,8.47,0,*43
1501509896.29,35600,22.81,74866.3,15.81,7.83,8.51,0,*40
1501509897.51,35601,22.81,74866.5,15.77,7.91,8.59,0,*43
1501509898.68,35602,22.81,74866.3,15.77,8.05,8.83,0,*45
1501509899.88,35603,22.81,74866.5,15.77,8.29,9.03,0,*43
1501509901.11,35604,22.81,74870.5,15.75,8.27,9.01,0,*4A
1501509902.31,35605,22.81,74870.0,15.77,8.27,8.97,0,*47
1501509903.51,35606,22.81,74868.5,15.75,8.45,9.33,0,*4D
1501509904.74,35607,22.81,74868.5,15.75,8.59,9.43,0,*46
1501509905.92,35608,22.81,74870.5,15.73,8.87,9.67,0,*4A
1501509907.16,35609,22.81,74870.0,15.75,8.55,9.47,0,*40
1501509908.39,35610,22.81,74868.3,15.77,8.93,9.81,0,*4A
1501509909.59,35611,22.81,74870.0,15.77,8.61,9.49,0,*42
1501509910.84,35612,22.81,74868.3,15.75,8.59,9.53,0,*43
1501509912.04,35613,22.81,74868.5,15.77,8.61,9.53,0,*4B
1501509913.24,35614,22.81,74868.5,15.75,8.69,9.67,0,*41
1501509914.47,35615,22.81,74870.0,15.75,8.79,9.77,0,*40
1501509915.7,35616,22.81,74868.5,15.75,8.89,9.99,0,*4C
1501509916.94,35617,22.81,74870.8,15.75,9.11,10.13,0,*77
1501509918.16,35618,22.81,74872.0,15.75,9.07,10.13,0,*7F
1501509919.4,35619,22.81,74874.3,15.75,9.11,10.13,0,*79
1501509920.63,35620,22.81,74872.5,15.75,8.93,10.03,0,*79
1501509921.83,35621,22.81,74874.5,15.77,8.97,9.95,0,*49
1501509923.08,35622,22.81,74868.8,15.75,8.59,9.61,0,*41
1501509924.32,35623,22.81,74868.5,15.75,9.01,10.09,0,*7A
1501509925.58,35624,22.81,74872.3,15.75,9.15,10.23,0,*70
1501509926.79,35625,22.81,74870.8,15.77,9.25,10.23,0,*70
1501509928.03,35626,22.81,74868.8,15.75,9.01,10.09,0,*7F
1501509929.27,35627,22.81,74868.0,15.75,8.93,10.03,0,*7E
1501509930.5,35628,22.81,74872.5,15.77,9.15,10.23,0,*7E
1501509931.69,35629,22.81,74870.3,15.77,9.07,10.17,0,*7B
1501509932.93,35630,22.81,74868.8,15.75,8.93,10.09,0,*72
1501509934.15,35631,22.81,74870.3,15.75,9.03,10.13,0,*70
1501509935.38,35632,22.81,74870.5,15.75,8.89,9.91,0,*42
1501509936.63,35633,22.81,74868.0,15.75,8.75,9.89,0,*49
1501509937.85,35634,22.81,74872.5,15.75,9.03,10.13,0,*75
1501509939.11,35635,22.81,74874.3,15.71,9.15,10.23,0,*74
1501509940.32,35636,22.81,74868.8,15.73,9.39,10.43,0,*7D
1501509941.55,35637,22.81,74868.8,15.73,9.49,10.65,0,*7F
1501509942.79,35638,22.81,74870.8,15.73,9.53,10.65,0,*7B
1501509944.02,35639,22.81,74872.5,15.71,9.53,10.69,0,*74
1501509945.22,35640,22.81,74872.8,15.75,9.71,10.85,0,*7C
1501509946.4,35641,22.81,74870.5,15.77,9.75,10.89,0,*77
1501509947.6,35642,22.81,74868.5,15.75,9.71,10.85,0,*7E
1501509948.84,35643,22.81,74872.0,15.75,9.71,10.79,0,*7C
1501509950.08,35644,22.81,74872.5,15.75,9.71,10.79,0,*7B
1501509951.32,35645,22.81,74872.0,15.75,9.71,10.79,0,*7A
1501509952.53,35646,22.81,74870.0,15.77,9.81,10.93,0,*70
1501509953.76,35647,22.81,74872.0,15.75,9.77,10.85,0,*7D
1501509954.93,35648,22.81,74874.5,15.77,9.91,10.89,0,*74
1501509956.14,35649,22.81,74874.5,15.77,10.05,11.07,0,*47
1501509957.36,35650,22.81,74874.5,15.77,10.05,11.07,0,*4F
1501509958.57,35651,22.81,74872.0,15.75,10.13,11.13,0,*4E
1501509959.81,35652,22.81,74868.0,15.75,10.09,11.03,0,*47
1501509960.99,35653,22.81,74868.5,15.77,10.03,10.93,0,*46
1501509962.26,35654,22.81,74870.8,15.75,9.81,10.75,0,*79
1501509963.43,35655,22.81,74870.5,15.77,9.91,10.89,0,*78
1501509964.64,35656,22.81,74874.3,15.77,10.05,11.07,0,*49
1501509965.85,35657,22.81,74868.8,15.77,10.03,10.99,0,*48
1501509967.05,35658,22.81,74872.8,15.79,9.91,10.89,0,*7B
1501509968.26,35659,22.81,74870.3,15.79,9.95,10.93,0,*75
1501509969.47,35660,22.81,74868.3,15.77,10.05,10.99,0,*4A
1501509970.7,35661,22.81,74872.3,15.79,9.91,10.83,0,*7B
1501509971.88,35662,22.81,74874.0,15.77,9.91,10.89,0,*7C
1501509973.09,35663,22.81,74874.5,15.77,10.13,10.99,0,*4E
1501509974.33,35664,22.81,74870.3,15.79,10.05,11.03,0,*42
1501509975.54,35665,22.81,74872.5,15.77,10.13,10.99,0,*48
1501509976.75,35666,22.81,74868.5,15.75,10.13,10.89,0,*48
1501509977.97,35667,22.81,74872.8,15.77,10.13,10.99,0,*4A
1501509979.18,35668,22.81,74874.0,15.77,10.17,10.99,0,*41
1501509980.39,35669,22.81,74874.8,15.77,10.03,10.79,0,*4B
1501509981.6,35670,22.81,74872.8,15.77,9.81,10.69,0,*70
1501509982.81,35671,22.81,74872.0,15.77,9.81,10.69,0,*71
1501509984.01,35672,22.81,74872.5,15.77,9.19,9.95,0,*48
1501509985.27,35673,22.81,74872.0,15.75,9.53,10.31,0,*73
1501509986.5,35674,22.81,74870.5,15.75,9.03,9.89,0,*4A
1501509987.71,35675,22.81,74870.3,15.73,9.11,9.95,0,*43
1501509988.91,35676,22.81,74870.0,15.73,8.97,9.75,0,*41
1501509990.12,35677,22.81,74870.0,15.73,9.49,10.17,0,*7E
1501509991.35,35678,22.81,74874.5,15.71,9.47,10.13,0,*79
1501509992.58,35679,22.81,74872.5,15.73,9.53,10.19,0,*75
1501509993.85,35680,22.81,74872.8,15.71,9.81,10.61,0,*71
1501509995.08,35681,22.81,74872.5,15.71,9.91,10.61,0,*71
1501509996.29,35682,22.81,74872.5,15.71,10.03,10.69,0,*49
1501509997.53,35683,22.81,74872.5,15.71,9.81,10.47,0,*76
1501509998.78,35684,22.81,74868.3,15.71,9.49,10.05,0,*73
1501510000.01,35685,22.81,74872.8,15.71,9.15,9.75,0,*44
1501510001.23,35686,22.81,74872.5,15.69,8.75,9.35,0,*4D
1501510002.45,35687,22.81,74870.0,15.67,9.47,10.03,0,*7F
1501510003.71,35688,22.81,74872.8,15.67,9.77,10.37,0,*74
1501510004.97,35689,22.81,74870.3,15.67,9.77,10.37,0,*75
1501510006.21,35690,22.81,74874.5,15.67,9.81,10.43,0,*77
1501510007.46,35691,22.81,74872.0,15.67,9.67,10.19,0,*71
1501510008.7,35692,22.81,74872.3,15.63,9.67,10.23,0,*7F
1501510009.94,35693,22.81,74874.8,15.63,9.75,10.23,0,*7D
1501510011.15,35694,22.81,74872.5,15.63,9.47,9.99,0,*42
1501510012.33,35695,22.81,74872.8,15.61,9.21,9.75,0,*43
1501510013.54,35696,22.81,74872.0,15.61,9.33,9.77,0,*41
1501510014.74,35697,22.81,74870.8,15.61,9.43,9.85,0,*4A
1501510015.96,35698,22.81,74874.8,15.59,9.25,9.75,0,*41
1501510017.19,35699,22.81,74872.8,15.59,9.53,10.03,0,*78
1501510018.42,35700,22.81,74874.5,15.59,9.95,10.37,0,*74
1501510019.67,35701,22.81,74870.8,15.57,9.85,10.27,0,*7B
1501510020.91,35702,22.81,74874.5,15.59,9.49,9.91,0,*43
1501510022.1,35703,22.81,74872.8,15.57,9.71,10.17,0,*71
1501510023.36,35704,22.81,74872.3,15.57,9.81,10.23,0,*7E
1501510024.6,35705,22.81,74874.8,15.57,9.89,10.27,0,*73
1501510025.82,35706,22.81,74874.3,15.57,9.81,10.09,0,*74
1501510027.01,35707,22.81,74872.8,15.57,9.91,10.33,0,*7D
1501510028.21,35708,22.81,74872.0,15.57,9.91,10.33,0,*72
1501510029.42,35709,22.81,74872.5,15.57,9.91,10.27,0,*76
1501510030.66,35710,22.81,74874.3,15.55,9.35,9.67,0,*4E
1501510031.89,35711,22.81,74874.3,15.55,9.61,10.03,0,*74
1501510033.12,35712,22.81,74872.0,15.53,9.57,9.85,0,*42
1501510034.36,35713,22.81,74874.8,15.53,9.89,10.23,0,*74
1501510035.61,35714,22.81,74872.3,15.55,9.89,10.17,0,*72
1501510036.85,35715,22.81,74872.8,15.53,9.89,10.23,0,*72
1501510038.08,35716,22.81,74874.5,15.53,9.57,9.85,0,*46
1501510039.31,35717,22.81,74874.8,15.53,9.57,9.77,0,*4A
1501510040.52,35718,22.81,74874.3,15.53,9.11,9.43,0,*40
1501510041.73,35719,22.81,74872.0,15.49,9.49,9.75,0,*42
1501510042.91,35720,22.81,74870.8,15.49,9.43,9.71,0,*46
1501510044.15,35721,22.81,74874.8,15.49,9.53,9.81,0,*49
1501510045.33,35722,22.81,74874.3,15.49,9.75,9.91,0,*4F
1501510046.57,35723,22.81,74872.0,15.49,9.61,9.81,0,*4A
1501510047.82,35724,22.81,74874.3,15.45,9.57,9.77,0,*4D
1501510049.05,35725,22.81,74874.5,15.45,9.47,9.77,0,*4D
1501510050.29,35726,22.81,74876.5,15.45,9.67,9.81,0,*45
1501510051.54,35727,22.81,74872.0,15.45,9.61,9.89,0,*4A
1501510052.78,35728,22.81,74872.0,15.45,9.77,10.05,0,*7E
1501510053.99,35729,22.81,74874.0,15.45,9.91,10.17,0,*74
1501510055.23,35730,22.81,74872.8,15.45,9.91,10.23,0,*7B
1501510056.47,35731,22.81,74872.8,15.45,9.81,10.05,0,*7F
1501510057.71,35732,22.81,74872.8,15.45,10.03,10.27,0,*4E
1501510058.94,35733,22.81,74876.8,15.45,10.13,10.37,0,*4F
1501510060.19,35734,22.81,74872.5,15.45,10.23,10.47,0,*4C
1501510061.41,35735,22.81,74872.8,15.45,10.05,10.33,0,*4A
1501510062.66,35736,22.81,74872.8,15.45,9.81,10.13,0,*7F
1501510063.9,35737,22.81,74872.5,15.45,9.99,10.23,0,*74
1501510065.09,35738,22.81,74872.5,15.43,10.03,10.33,0,*47
1501510066.31,35739,22.81,74872.3,15.43,9.99,10.31,0,*7F
1501510067.52,35740,22.81,74874.8,15.43,9.95,10.23,0,*7E
1501510068.74,35741,22.81,74874.8,15.43,9.85,10.03,0,*7C
1501510069.96,35742,22.81,74874.8,15.43,9.85,10.09,0,*75
1501510071.15,35743,22.81,74874.3,15.43,9.75,10.03,0,*71
1501510072.38,35744,22.81,74874.5,15.43,10.19,10.61,0,*40
1501510073.62,35745,22.81,74876.0,15.39,10.37,10.61,0,*40
1501510074.83,35746,22.81,74872.0,15.43,10.55,10.83,0,*46
1501510076.05,35747,22.81,74876.3,15.43,10.31,10.55,0,*4E
1501510077.28,35748,22.81,74878.3,15.43,10.41,10.65,0,*45
1501510078.51,35749,22.81,74872.5,15.43,10.33,10.61,0,*45
1501510079.75,35750,22.81,74876.8,15.45,10.69,11.03,0,*41
1501510081.01,35751,22.81,74878.0,15.45,10.83,11.03,0,*44
1501510082.24,35752,22.81,74872.8,15.45,10.55,10.83,0,*45
1501510083.46,35753,22.81,74876.3,15.47,10.83,10.93,0,*4C
1501510084.65,35754,22.81,74872.8,15.47,10.47,10.69,0,*46
1501510085.83,35755,22.81,74874.8,15.47,10.47,10.69,0,*47
1501510087.02,35756,22.81,74874.0,15.47,10.47,10.69,0,*44
1501510088.25,35757,22.81,74874.5,15.47,10.13,10.27,0,*4E
1501510089.46,35758,22.81,74872.0,15.47,10.37,10.55,0,*42
1501510090.67,35759,22.81,74874.3,15.47,10.43,10.57,0,*42
1501510091.88,35760,22.81,74876.3,15.47,10.57,10.69,0,*40
1501510093.09,35761,22.81,74878.8,15.47,10.47,10.65,0,*4C
1501510094.31,35762,22.81,74874.5,15.49,10.69,10.83,0,*45
1501510095.53,35763,22.81,74876.8,15.49,10.75,10.93,0,*48
1501510096.74,35764,22.81,74872.8,15.49,10.85,11.03,0,*48
1501510097.99,35765,22.81,74878.8,15.51,10.85,11.03,0,*40
1501510099.23,35766,22.81,74874.5,15.51,11.07,11.17,0,*4D
1501510100.47,35767,22.81,74874.0,15.51,10.93,11.03,0,*45
1501510101.71,35768,22.81,74872.0,15.51,10.85,11.03,0,*4D
1501510102.96,35769,22.81,74878.5,15.53,10.79,10.95,0,*43
1501510104.21,35770,22.81,74872.8,15.55,11.13,11.23,0,*4C
1501510105.46,35771,22.81,74876.3,15.55,11.03,11.13,0,*4F
1501510106.69,35772,22.81,74874.3,15.55,11.09,11.13,0,*46
1501510107.89,35773,22.81,74872.8,15.57,11.13,11.21,0,*4F
1501510109.13,35774,22.81,74878.5,15.57,11.23,11.23,0,*49
1501510110.35,35775,22.81,74876.0,15.57,11.03,11.09,0,*42
1501510111.6,35776,22.81,74874.8,15.57,11.03,10.99,0,*49
1501510112.83,35777,22.81,74872.8,15.59,11.13,11.13,0,*44
1501510114.06,35778,22.81,74876.0,15.59,11.13,11.13,0,*4B